sat.trackr.live / text

‹ back to catalog

RAPTOR2

NORAD 58959 · 2024-028E

PAYLOAD ACTIVE UNKNOWN

§ Identity

Operator
Country
US
Launch date
2024-02-14
Launch site
AFETR
Launch vehicle
Mass (kg)
RCS (m²)

External: N2YO · Heavens-Above · Gunter

§ Orbital elements

Epoch: 2026-09-22T03:19:42.544704Z

Period
105.07 min
Inclination
39.9917°
Eccentricity
0.0010274
Mean motion
13.70561723 rev/d
Perigee alt
990.0 km
Apogee alt
1,005.1 km
Semi-major
7,375.7 km
B*
2.1065e-5
RAAN
317.4564°
Arg perigee
97.5657°
Mean anomaly
262.6256°
Rev number
13,037

§ Raw data

RAPTOR21 58959U 24028E   26265.13868686 -.00000059  00000+0  21065-4 0  99912 58959  39.9917 317.4564 0010274  97.5657 262.6256 13.70561723130377

JSON: /api/v1/satellites/58959 · /tle

For live sub-satellite position, see the globe view (requires WebGL).

§ Visibility from observer

Set your observer location to see the next 7 days of passes ≥ 10°. The values pass through the URL so the page stays shareable.

No JS? Fill the form by hand. The geolocation button needs JavaScript.